Regional Weather Roundup
Issued by NWS Little Rock, AR

Home | Current Version | Previous Version | Text Only | Print | Product List | Glossary Off
Versions: 1 2 3 4 5 6 7 8 9 10 11 12 13 14 15 16 17 18 19 20 21 22 23 24 25 26 27

000
ASUS44 KLZK 251905
RWRLZK

WEATHER ROUNDUP FOR ARKANSAS
NATIONAL WEATHER SERVICE LITTLE ROCK AR
200 PM CDT MON JUL 25 2016

NOTE: "FAIR" INDICATES FEW OR NO CLOUDS BELOW 12,000 FEET WITH NO
SIGNIFICANT WEATHER AND/OR OBSTRUCTIONS TO VISIBILITY.

ARZ001-003-010-029-252000-
NORTHWEST ARKANSAS

CITY           SKY/WX    TMP DP  RH WIND       PRES   REMARKS
FAYETTEVILLE   CLOUDY    77  76  96 E7        30.03F
FORT SMITH     PTSUNNY   89  71  55 E16G22    29.98F HX  95
HARRISON       CLOUDY    80  72  76 CALM      30.06F
BENTONVILLE    CLOUDY    79  68  69 SE10      30.03F
ROGERS         CLOUDY    77  71  82 SE10      30.03F
SILOAM SPGS    CLOUDY    81  66  61 E12G18    30.03F
HIGHFILL       PTSUNNY   79  73  82 SE13      30.03F
SPRINGDALE     MOSUNNY   75  73  94 E12       30.05F
$$

ARZ004-005-016-252000-
NORTH CENTRAL ARKANSAS

CITY           SKY/WX    TMP DP  RH WIND       PRES   REMARKS
BATESVILLE     SUNNY     91  73  55 N3        29.98F HX 100
FLIPPIN        CLOUDY    84  70  61 N6        30.00F HX  88
MTN HOME       CLOUDY    84  75  74 VRB6      30.02F HX  92
$$

ARZ040-041-252000-
WEST CENTRAL ARKANSAS

CITY           SKY/WX    TMP DP  RH WIND       PRES   REMARKS
MENA           CLOUDY    91  75  59 NE6       29.99F HX 102
MOUNT IDA      MOSUNNY   95  72  47 CALM      29.95F HX 103
$$

ARZ009-017-025-026-028-252000-
NORTHEAST ARKANSAS

CITY           SKY/WX    TMP DP  RH WIND       PRES   REMARKS
CORNING          N/A     82  79  89 NE7       29.99F HX  93
JONESBORO      MOSUNNY   88  73  61 W12       29.98F HX  95
NEWPORT        MOSUNNY   95  74  50 W6        29.98F HX 105
WALNUT RIDGE   CLOUDY    91  75  59 N3        29.96F HX 102
BLYTHEVILLE    MOSUNNY   93  79  63 S6        29.97F HX 110
NW BLYTHEVILLE PTSUNNY   95  77  55 W8        29.97F HX 109
$$

ARZ022-023-033-042-044-252000-
CENTRAL ARKANSAS

CITY           SKY/WX    TMP DP  RH WIND       PRES   REMARKS
LITTLE ROCK    MOSUNNY   95  71  45 VRB5      29.97F HX 102
N LITTLE ROCK    N/A     91  74  56 CALM      29.94F HX 100
SEARCY         CLOUDY    93  76  57 S6        29.98F HX 105
HOT SPRINGS    SUNNY     93  74  53 MISG      29.97F HX 103
RUSSELLVILLE   MOSUNNY   89  72  56 VRB5      29.99F HX  96
$$

ARZ036-252000-
EAST ARKANSAS

CITY           SKY/WX    TMP DP  RH WIND       PRES   REMARKS
WEST MEMPHIS   MOSUNNY   92  75  57 SW7       29.97F HX 103
$$

ARZ050-053-066-070-073-252000-
SOUTHWEST ARKANSAS

CITY           SKY/WX    TMP DP  RH WIND       PRES   REMARKS
CAMDEN         MOSUNNY   95  72  46 SE7       29.95F HX 103
TEXARKANA      SUNNY     94  72  48 VRB5      29.95F HX 102
EL DORADO      MOSUNNY   93  71  48 VRB3      29.96F HX 100
DE QUEEN       PTSUNNY   95  74  50 CALM      29.92F HX 105
$$

ARZ056-057-069-252000-
SOUTHEAST ARKANSAS

CITY           SKY/WX    TMP DP  RH WIND       PRES   REMARKS
PINE BLUFF     SUNNY     93  73  52 MISG      29.97F HX 102
STUTTGART      SUNNY     93  72  49 SW7       29.98F HX 100
MONTICELLO     SUNNY     94  76  55 VRB3      29.97F HX 106

$$






USA.gov is the U.S. government's official web portal to all federal, state and local government web resources and services.